QPF
0.00 0.00 0.00 0.00 0.00 0.00 0.00 0.00 0.00 0.00 0.00 0.00 0.00 0.00 0.00 0.00 0.01 0.01 0.00 0.00 0.00 0.00 0.00 0.01 0.01 0.00 0.01 0.01 0.00 0.00 0.01 0.01 0.01 0.01 0.01 0.01 0.01 0.01 0.01 0.01 0.01 0.01 0.02 0.02
0.00 0.00 0.00 0.00 0.00 0.00 0.00 0.00 0.00 0.00 0.00 0.00 0.00 0.00 0.00 0.00 0.00 0.01 0.01 0.00 0.00 0.00 0.00 0.01 0.01 0.01 0.01 0.01 0.01 0.01 0.02 0.02 0.03 0.03 0.02 0.02 0.02 0.02 0.02 0.02 0.02 0.02 0.02 0.02
0.00 0.00 0.00 0.00 0.00 0.00 0.00 0.00 0.00 0.00 0.00 0.00 0.00 0.00 0.00 0.00 0.00 0.00 0.01 0.01 0.00 0.00 0.00 0.00 0.01 0.01 0.02 0.02 0.03 0.04 0.06 0.07 0.08 0.06 0.05 0.05 0.04 0.03 0.03 0.03 0.03 0.02 0.02 0.02
0.00 0.00 0.00 0.00 0.00 0.00 0.00 0.00 0.00 0.00 0.00 0.00 0.00 0.00 0.00 0.00 0.01 0.01 0.01 0.01 0.01 0.01 0.01 0.01 0.01 0.03 0.04 0.05 0.05 0.06 0.08 0.13 0.14 0.11 0.09 0.08 0.07 0.07 0.07 0.06 0.03 0.02 0.02 0.02
0.00 0.00 0.00 0.00 0.00 0.00 0.00 0.00 0.00 0.01 0.01 0.01 0.01 0.00 0.01 0.01 0.01 0.01 0.01 0.02 0.02 0.02 0.01 0.01 0.02 0.03 0.04 0.04 0.04 0.05 0.07 0.10 0.13 0.12 0.09 0.08 0.07 0.08 0.08 0.04 0.02 0.01 0.01 0.01
0.00 0.00 0.00 0.00 0.00 0.00 0.00 0.00 0.00 0.00 0.01 0.01 0.02 0.01 0.01 0.00 0.00 0.01 0.01 0.01 0.01 0.01 0.01 0.02 0.03 0.03 0.04 0.04 0.05 0.05 0.07 0.08 0.08 0.10 0.11 0.10 0.08 0.07 0.06 0.03 0.02 0.02 0.01 0.01
0.00 0.00 0.00 0.00 0.00 0.01 0.01 0.00 0.00 0.00 0.00 0.01 0.01 0.00 0.00 0.00 0.00 0.00 0.00 0.01 0.01 0.00 0.01 0.01 0.03 0.09 0.11 0.07 0.05 0.05 0.07 0.09 0.12 0.12 0.13 0.14 0.11 0.08 0.06 0.04 0.02 0.02 0.02 0.02
0.00 0.00 0.00 0.00 0.00 0.00 0.00 0.00 0.00 0.00 0.00 0.01 0.01 0.01 0.01 0.01 0.01 0.01 0.01 0.01 0.01 0.00 0.00 0.01 0.02 0.04 0.07 0.07 0.05 0.05 0.05 0.07 0.10 0.12 0.13 0.12 0.09 0.07 0.06 0.04 0.03 0.03 0.03 0.03
0.00 0.00 0.00 0.00 0.00 0.00 0.01 0.01 0.01 0.01 0.01 0.01 0.01 0.01 0.01 0.01 0.01 0.02 0.02 0.02 0.01 0.01 0.01 0.01 0.01 0.01 0.02 0.02 0.03 0.03 0.03 0.04 0.06 0.06 0.07 0.08 0.07 0.06 0.05 0.05 0.05 0.05 0.05 0.05
0.00 0.00 0.00 0.00 0.00 0.00 0.00 0.00 0.01 0.02 0.03 0.03 0.02 0.01 0.02 0.01 0.01 0.01 0.02 0.02 0.02 0.01 0.01 0.01 0.01 0.01 0.01 0.01 0.01 0.02 0.02 0.02 0.04 0.05 0.07 0.07 0.06 0.05 0.06 0.07 0.07 0.07 0.07 0.07
0.01 0.01 0.01 0.01 0.00 0.00 0.00 0.00 0.01 0.02 0.03 0.04 0.03 0.02 0.02 0.02 0.02 0.02 0.02 0.03 0.02 0.01 0.01 0.01 0.01 0.01 0.00 0.01 0.01 0.01 0.01 0.01 0.03 0.04 0.06 0.06 0.05 0.05 0.06 0.06 0.07 0.08 0.10 0.11
0.01 0.01 0.01 0.01 0.00 0.00 0.00 0.00 0.01 0.02 0.02 0.02 0.03 0.03 0.02 0.02 0.03 0.03 0.03 0.03 0.02 0.02 0.01 0.01 0.01 0.00 0.00 0.00 0.01 0.01 0.02 0.02 0.04 0.05 0.06 0.06 0.07 0.06 0.07 0.07 0.07 0.07 0.09 0.10
0.01 0.01 0.01 0.01 0.00 0.00 0.00 0.00 0.00 0.01 0.01 0.01 0.02 0.02 0.02 0.03 0.03 0.03 0.02 0.02 0.03 0.03 0.02 0.01 0.01 0.01 0.01 0.01 0.01 0.01 0.02 0.03 0.03 0.05 0.06 0.07 0.09 0.09 0.08 0.08 0.09 0.08 0.09 0.09
0.01 0.01 0.01 0.00 0.00 0.01 0.00 0.00 0.00 0.00 0.01 0.01 0.02 0.02 0.02 0.02 0.03 0.02 0.02 0.02 0.02 0.03 0.03 0.02 0.02 0.02 0.01 0.01 0.01 0.02 0.02 0.03 0.04 0.04 0.05 0.07 0.09 0.11 0.08 0.07 0.07 0.08 0.08 0.07
0.01 0.01 0.01 0.01 0.01 0.01 0.01 0.01 0.01 0.01 0.01 0.02 0.02 0.02 0.02 0.02 0.02 0.01 0.02 0.02 0.02 0.03 0.03 0.03 0.03 0.02 0.02 0.03 0.03 0.03 0.03 0.04 0.04 0.04 0.04 0.05 0.10 0.10 0.07 0.06 0.06 0.06 0.06 0.06
0.01 0.01 0.01 0.01 0.01 0.02 0.02 0.03 0.03 0.02 0.02 0.02 0.02 0.02 0.02 0.02 0.01 0.01 0.01 0.02 0.04 0.05 0.06 0.06 0.04 0.03 0.03 0.03 0.03 0.04 0.04 0.04 0.04 0.04 0.05 0.05 0.06 0.07 0.07 0.07 0.06 0.06 0.07 0.06
0.01 0.01 0.02 0.02 0.02 0.02 0.02 0.03 0.04 0.04 0.03 0.03 0.02 0.02 0.02 0.02 0.02 0.02 0.01 0.02 0.02 0.04 0.07 0.09 0.08 0.06 0.03 0.02 0.02 0.03 0.04 0.05 0.05 0.04 0.04 0.04 0.05 0.07 0.08 0.07 0.06 0.06 0.06 0.06
0.02 0.04 0.06 0.06 0.04 0.03 0.03 0.03 0.04 0.03 0.02 0.02 0.03 0.03 0.02 0.02 0.02 0.01 0.01 0.01 0.02 0.02 0.03 0.05 0.06 0.05 0.03 0.02 0.02 0.02 0.03 0.03 0.03 0.03 0.03 0.03 0.04 0.05 0.05 0.05 0.05 0.05 0.05 0.05
0.02 0.03 0.04 0.05 0.06 0.05 0.05 0.05 0.04 0.03 0.03 0.03 0.03 0.03 0.03 0.03 0.02 0.02 0.01 0.01 0.01 0.02 0.02 0.03 0.04 0.04 0.03 0.02 0.03 0.02 0.03 0.04 0.04 0.04 0.04 0.04 0.05 0.05 0.05 0.05 0.05 0.05 0.05 0.05
0.03 0.03 0.03 0.03 0.04 0.06 0.06 0.04 0.03 0.02 0.03 0.03 0.03 0.03 0.02 0.02 0.02 0.02 0.02 0.02 0.02 0.02 0.03 0.03 0.03 0.04 0.04 0.03 0.04 0.04 0.05 0.06 0.07 0.06 0.05 0.05 0.06 0.06 0.05 0.04 0.04 0.03 0.03 0.03
0.05 0.04 0.03 0.03 0.04 0.05 0.05 0.05 0.03 0.03 0.04 0.03 0.02 0.03 0.02 0.02 0.02 0.02 0.02 0.02 0.02 0.02 0.03 0.03 0.03 0.03 0.04 0.04 0.05 0.05 0.06 0.07 0.08 0.08 0.05 0.06 0.06 0.06 0.05 0.04 0.03 0.02 0.02 0.02
0.06 0.06 0.05 0.04 0.03 0.03 0.04 0.04 0.04 0.03 0.03 0.03 0.03 0.03 0.02 0.02 0.03 0.04 0.05 0.06 0.05 0.04 0.04 0.04 0.04 0.05 0.06 0.07 0.06 0.06 0.07 0.08 0.07 0.07 0.06 0.06 0.07 0.07 0.06 0.05 0.03 0.02 0.03 0.03
0.07 0.06 0.05 0.03 0.03 0.04 0.05 0.04 0.03 0.03 0.03 0.03 0.04 0.03 0.02 0.03 0.05 0.07 0.07 0.06 0.05 0.05 0.04 0.05 0.07 0.08 0.07 0.07 0.07 0.08 0.10 0.10 0.08 0.07 0.06 0.06 0.07 0.07 0.07 0.06 0.05 0.04 0.05 0.06
0.03 0.03 0.03 0.03 0.04 0.05 0.05 0.04 0.04 0.04 0.04 0.04 0.05 0.04 0.05 0.07 0.08 0.10 0.11 0.09 0.07 0.06 0.06 0.07 0.09 0.09 0.08 0.07 0.08 0.08 0.11 0.10 0.07 0.06 0.04 0.05 0.05 0.05 0.05 0.05 0.05 0.05 0.05 0.05
0.02 0.03 0.03 0.04 0.04 0.05 0.05 0.05 0.06 0.06 0.06 0.07 0.07 0.07 0.07 0.08 0.10 0.11 0.10 0.08 0.06 0.06 0.05 0.07 0.10 0.09 0.06 0.06 0.05 0.07 0.09 0.08 0.07 0.05 0.04 0.03 0.04 0.04 0.04 0.04 0.05 0.05 0.05 0.04
0.02 0.02 0.03 0.05 0.05 0.05 0.07 0.07 0.08 0.09 0.09 0.09 0.09 0.08 0.07 0.06 0.05 0.04 0.05 0.07 0.07 0.06 0.05 0.07 0.09 0.07 0.05 0.05 0.05 0.05 0.05 0.06 0.06 0.04 0.03 0.03 0.03 0.04 0.04 0.04 0.04 0.04 0.03 0.03
0.03 0.03 0.04 0.06 0.09 0.10 0.10 0.09 0.09 0.11 0.11 0.11 0.12 0.14 0.12 0.10 0.07 0.06 0.06 0.07 0.06 0.06 0.08 0.09 0.08 0.06 0.04 0.03 0.03 0.03 0.04 0.04 0.04 0.04 0.04 0.03 0.03 0.03 0.03 0.02 0.02 0.02 0.01 0.01
MSLP
1007.67 1008.00 1008.39 1008.83 1009.24 1009.57 1009.75 1009.73 1009.49 1009.03 1008.37 1007.60 1006.78 1006.03 1005.40 1004.96 1004.72 1004.69 1004.83 1005.08 1005.40 1005.73 1006.04 1006.32 1006.57 1006.82 1007.08 1007.38 1007.74 1008.15 1008.59 1009.05 1009.51 1009.93 1010.31 1010.65 1010.96 1011.27 1011.59 1011.96 1012.36 1012.82 1013.31 1013.82
1007.99 1008.14 1008.28 1008.41 1008.50 1008.53 1008.46 1008.28 1007.97 1007.55 1007.03 1006.45 1005.86 1005.32 1004.86 1004.53 1004.33 1004.26 1004.30 1004.43 1004.62 1004.85 1005.09 1005.35 1005.63 1005.94 1006.29 1006.69 1007.13 1007.60 1008.08 1008.56 1009.01 1009.43 1009.82 1010.18 1010.53 1010.89 1011.28 1011.72 1012.20 1012.72 1013.27 1013.80
1008.24 1008.21 1008.12 1007.97 1007.77 1007.53 1007.24 1006.92 1006.57 1006.18 1005.78 1005.36 1004.97 1004.61 1004.30 1004.06 1003.88 1003.77 1003.72 1003.73 1003.81 1003.94 1004.12 1004.38 1004.69 1005.07 1005.51 1006.01 1006.53 1007.07 1007.60 1008.10 1008.57 1009.00 1009.40 1009.78 1010.17 1010.59 1011.04 1011.53 1012.07 1012.64 1013.20 1013.74
1008.32 1008.13 1007.82 1007.43 1006.99 1006.52 1006.06 1005.62 1005.23 1004.88 1004.58 1004.32 1004.09 1003.89 1003.70 1003.53 1003.36 1003.22 1003.10 1003.03 1003.02 1003.08 1003.23 1003.49 1003.84 1004.29 1004.82 1005.40 1006.00 1006.61 1007.18 1007.71 1008.20 1008.64 1009.05 1009.47 1009.89 1010.35 1010.85 1011.40 1011.97 1012.55 1013.11 1013.64
1008.16 1007.81 1007.31 1006.72 1006.08 1005.43 1004.84 1004.32 1003.91 1003.60 1003.40 1003.26 1003.17 1003.10 1003.03 1002.92 1002.79 1002.65 1002.49 1002.38 1002.32 1002.35 1002.49 1002.77 1003.17 1003.68 1004.28 1004.93 1005.59 1006.24 1006.85 1007.40 1007.90 1008.35 1008.79 1009.22 1009.68 1010.18 1010.72 1011.29 1011.88 1012.45 1012.99 1013.48
1007.74 1007.23 1006.57 1005.81 1005.01 1004.23 1003.54 1002.98 1002.57 1002.31 1002.18 1002.16 1002.20 1002.25 1002.28 1002.26 1002.18 1002.06 1001.92 1001.80 1001.75 1001.79 1001.96 1002.26 1002.71 1003.27 1003.92 1004.62 1005.33 1006.00 1006.62 1007.18 1007.69 1008.15 1008.60 1009.05 1009.54 1010.06 1010.62 1011.21 1011.79 1012.35 1012.86 1013.31
1007.10 1006.42 1005.61 1004.72 1003.80 1002.94 1002.19 1001.60 1001.20 1000.99 1000.94 1001.02 1001.16 1001.33 1001.46 1001.54 1001.54 1001.49 1001.41 1001.34 1001.33 1001.42 1001.63 1001.99 1002.48 1003.09 1003.77 1004.49 1005.21 1005.89 1006.51 1007.06 1007.56 1008.02 1008.47 1008.94 1009.44 1009.98 1010.55 1011.14 1011.72 1012.26 1012.73 1013.14
1006.30 1005.48 1004.54 1003.54 1002.54 1001.61 1000.83 1000.24 999.86 999.69 999.71 999.87 1000.12 1000.39 1000.63 1000.81 1000.92 1000.97 1000.98 1001.01 1001.08 1001.24 1001.52 1001.93 1002.47 1003.10 1003.80 1004.53 1005.23 1005.90 1006.49 1007.03 1007.51 1007.96 1008.41 1008.88 1009.38 1009.92 1010.50 1011.08 1011.65 1012.17 1012.62 1012.99
1005.44 1004.51 1003.47 1002.38 1001.33 1000.37 999.58 998.99 998.63 998.50 998.57 998.80 999.12 999.49 999.83 1000.13 1000.36 1000.53 1000.66 1000.79 1000.97 1001.22 1001.58 1002.05 1002.62 1003.27 1003.97 1004.68 1005.36 1005.99 1006.56 1007.06 1007.52 1007.95 1008.39 1008.85 1009.35 1009.89 1010.46 1011.03 1011.58 1012.09 1012.52 1012.87
1004.64 1003.61 1002.51 1001.38 1000.30 999.33 998.53 997.96 997.62 997.52 997.63 997.90 998.29 998.73 999.16 999.57 999.91 1000.21 1000.47 1000.72 1001.01 1001.35 1001.78 1002.30 1002.90 1003.56 1004.24 1004.92 1005.57 1006.16 1006.68 1007.15 1007.58 1007.99 1008.41 1008.86 1009.35 1009.87 1010.42 1010.98 1011.51 1012.00 1012.42 1012.76
1003.95 1002.88 1001.76 1000.62 999.55 998.59 997.82 997.26 996.94 996.85 996.98 997.28 997.71 998.20 998.71 999.20 999.64 1000.05 1000.42 1000.79 1001.18 1001.60 1002.09 1002.65 1003.26 1003.91 1004.57 1005.21 1005.81 1006.36 1006.84 1007.28 1007.68 1008.07 1008.47 1008.90 1009.36 1009.87 1010.39 1010.92 1011.43 1011.90 1012.30 1012.64
1003.41 1002.36 1001.27 1000.17 999.14 998.23 997.49 996.96 996.65 996.58 996.71 997.02 997.47 997.98 998.54 999.09 999.61 1000.10 1000.57 1001.02 1001.48 1001.97 1002.49 1003.06 1003.67 1004.29 1004.91 1005.51 1006.07 1006.58 1007.03 1007.44 1007.82 1008.19 1008.57 1008.97 1009.41 1009.88 1010.36 1010.86 1011.34 1011.77 1012.16 1012.47
1003.02 1002.04 1001.02 1000.01 999.06 998.22 997.53 997.04 996.76 996.69 996.83 997.13 997.58 998.11 998.68 999.27 999.84 1000.39 1000.91 1001.42 1001.92 1002.44 1002.97 1003.53 1004.11 1004.69 1005.27 1005.83 1006.34 1006.82 1007.24 1007.63 1007.99 1008.34 1008.70 1009.07 1009.47 1009.90 1010.34 1010.79 1011.22 1011.61 1011.96 1012.26
1002.72 1001.85 1000.96 1000.07 999.22 998.48 997.88 997.44 997.20 997.15 997.29 997.59 998.03 998.55 999.14 999.74 1000.34 1000.91 1001.46 1001.99 1002.50 1003.01 1003.52 1004.04 1004.58 1005.11 1005.64 1006.15 1006.62 1007.07 1007.47 1007.84 1008.20 1008.53 1008.87 1009.22 1009.58 1009.96 1010.34 1010.72 1011.09 1011.44 1011.74 1012.00
1002.47 1001.74 1000.99 1000.24 999.54 998.92 998.41 998.05 997.86 997.84 998.00 998.30 998.74 999.27 999.85 1000.45 1001.05 1001.63 1002.18 1002.70 1003.19 1003.67 1004.14 1004.61 1005.08 1005.55 1006.02 1006.48 1006.92 1007.34 1007.73 1008.09 1008.44 1008.77 1009.09 1009.41 1009.73 1010.05 1010.38 1010.69 1010.99 1011.27 1011.52 1011.73
1002.21 1001.63 1001.03 1000.45 999.89 999.40 999.01 998.74 998.62 998.66 998.84 999.17 999.61 1000.15 1000.73 1001.33 1001.93 1002.50 1003.03 1003.53 1003.98 1004.41 1004.82 1005.22 1005.61 1006.02 1006.43 1006.84 1007.24 1007.63 1008.01 1008.38 1008.72 1009.05 1009.36 1009.65 1009.93 1010.21 1010.46 1010.71 1010.93 1011.14 1011.32 1011.48
1001.90 1001.46 1001.02 1000.58 1000.17 999.82 999.55 999.39 999.35 999.45 999.69 1000.05 1000.53 1001.08 1001.67 1002.28 1002.88 1003.44 1003.96 1004.41 1004.82 1005.19 1005.53 1005.85 1006.18 1006.51 1006.85 1007.21 1007.58 1007.96 1008.33 1008.69 1009.04 1009.36 1009.66 1009.94 1010.19 1010.41 1010.60 1010.78 1010.93 1011.07 1011.20 1011.30
1001.53 1001.21 1000.90 1000.59 1000.32 1000.09 999.94 999.88 999.94 1000.12 1000.43 1000.85 1001.38 1001.96 1002.59 1003.22 1003.82 1004.38 1004.88 1005.30 1005.67 1005.98 1006.26 1006.51 1006.76 1007.02 1007.31 1007.62 1007.95 1008.30 1008.67 1009.03 1009.38 1009.71 1010.00 1010.26 1010.48 1010.66 1010.80 1010.92 1011.01 1011.09 1011.16 1011.22
1001.12 1000.89 1000.67 1000.47 1000.30 1000.18 1000.14 1000.18 1000.33 1000.60 1000.99 1001.48 1002.07 1002.71 1003.38 1004.04 1004.66 1005.23 1005.73 1006.14 1006.47 1006.74 1006.96 1007.15 1007.34 1007.54 1007.77 1008.03 1008.34 1008.67 1009.02 1009.38 1009.73 1010.05 1010.34 1010.59 1010.79 1010.94 1011.04 1011.11 1011.15 1011.18 1011.21 1011.23
1000.71 1000.52 1000.36 1000.23 1000.14 1000.10 1000.14 1000.28 1000.52 1000.87 1001.34 1001.91 1002.56 1003.26 1003.98 1004.70 1005.36 1005.95 1006.46 1006.87 1007.18 1007.42 1007.60 1007.75 1007.89 1008.04 1008.22 1008.45 1008.71 1009.02 1009.36 1009.71 1010.06 1010.38 1010.67 1010.91 1011.09 1011.22 1011.30 1011.33 1011.34 1011.34 1011.33 1011.33
1000.32 1000.15 1000.01 999.92 999.88 999.90 1000.01 1000.21 1000.53 1000.95 1001.49 1002.13 1002.85 1003.62 1004.40 1005.16 1005.87 1006.50 1007.03 1007.45 1007.77 1008.00 1008.16 1008.28 1008.38 1008.49 1008.64 1008.83 1009.06 1009.34 1009.66 1010.00 1010.34 1010.66 1010.95 1011.18 1011.36 1011.47 1011.54 1011.56 1011.55 1011.52 1011.49 1011.48
999.98 999.81 999.68 999.60 999.59 999.65 999.80 1000.05 1000.42 1000.91 1001.50 1002.20 1002.98 1003.80 1004.63 1005.44 1006.19 1006.86 1007.42 1007.86 1008.20 1008.43 1008.59 1008.70 1008.78 1008.87 1008.98 1009.15 1009.35 1009.61 1009.91 1010.23 1010.56 1010.87 1011.15 1011.38 1011.56 1011.67 1011.74 1011.76 1011.74 1011.71 1011.68 1011.66
999.73 999.54 999.41 999.34 999.33 999.41 999.59 999.87 1000.28 1000.80 1001.43 1002.17 1002.99 1003.84 1004.72 1005.56 1006.34 1007.04 1007.64 1008.11 1008.46 1008.71 1008.88 1008.99 1009.07 1009.14 1009.24 1009.37 1009.56 1009.79 1010.07 1010.36 1010.68 1010.98 1011.26 1011.49 1011.68 1011.80 1011.88 1011.91 1011.90 1011.88 1011.85 1011.84
999.56 999.36 999.22 999.15 999.15 999.24 999.43 999.74 1000.16 1000.70 1001.35 1002.10 1002.93 1003.81 1004.69 1005.55 1006.36 1007.08 1007.69 1008.18 1008.56 1008.83 1009.02 1009.13 1009.21 1009.28 1009.37 1009.48 1009.65 1009.85 1010.11 1010.39 1010.69 1010.98 1011.26 1011.51 1011.70 1011.85 1011.94 1011.99 1012.01 1012.01 1012.00 1012.00
999.48 999.28 999.15 999.08 999.09 999.19 999.39 999.70 1000.12 1000.66 1001.31 1002.05 1002.87 1003.73 1004.61 1005.46 1006.27 1006.99 1007.61 1008.12 1008.51 1008.79 1008.99 1009.12 1009.21 1009.28 1009.36 1009.46 1009.60 1009.79 1010.02 1010.29 1010.58 1010.87 1011.15 1011.40 1011.62 1011.80 1011.92 1012.01 1012.06 1012.09 1012.10 1012.11
999.47 999.30 999.18 999.12 999.15 999.25 999.46 999.77 1000.18 1000.71 1001.34 1002.05 1002.84 1003.66 1004.51 1005.33 1006.10 1006.81 1007.42 1007.92 1008.32 1008.62 1008.83 1008.97 1009.06 1009.13 1009.21 1009.30 1009.42 1009.60 1009.81 1010.06 1010.34 1010.63 1010.92 1011.20 1011.44 1011.65 1011.82 1011.95 1012.04 1012.10 1012.14 1012.18
999.53 999.38 999.29 999.26 999.30 999.42 999.64 999.94 1000.34 1000.84 1001.44 1002.11 1002.84 1003.62 1004.40 1005.17 1005.91 1006.58 1007.16 1007.65 1008.04 1008.33 1008.54 1008.69 1008.78 1008.85 1008.92 1009.01 1009.12 1009.28 1009.47 1009.71 1009.98 1010.28 1010.58 1010.88 1011.16 1011.40 1011.61 1011.79 1011.92 1012.03 1012.10 1012.16
Thickness
5742 5753 5758 5761 5761 5760 5760 5755 5749 5759 5765 5782 5792 5798 5803 5806 5806 5806 5806 5806 5805 5803 5802 5801 5798 5796 5794 5790 5786 5783 5778 5775 5772 5769 5766 5762 5759 5756 5753 5749 5746 5743 5739 5736
5734 5745 5750 5752 5757 5759 5762 5760 5760 5765 5769 5789 5793 5797 5798 5799 5800 5800 5800 5801 5802 5801 5800 5798 5796 5793 5791 5788 5784 5781 5777 5773 5770 5767 5763 5760 5757 5754 5750 5747 5744 5740 5737 5734
5712 5729 5738 5731 5749 5754 5757 5761 5762 5759 5772 5786 5786 5789 5792 5794 5796 5797 5798 5798 5798 5798 5797 5796 5794 5792 5789 5786 5783 5779 5776 5772 5768 5764 5761 5758 5756 5751 5747 5744 5740 5737 5734 5731
5697 5711 5703 5731 5756 5760 5758 5761 5765 5770 5776 5780 5784 5789 5792 5795 5794 5794 5795 5795 5795 5795 5794 5793 5791 5789 5786 5783 5780 5777 5773 5769 5766 5763 5759 5755 5751 5748 5744 5741 5738 5735 5732 5729
5682 5689 5705 5731 5748 5752 5749 5751 5764 5766 5771 5775 5780 5782 5784 5791 5792 5793 5794 5794 5794 5794 5792 5789 5786 5784 5781 5778 5775 5772 5769 5766 5764 5761 5757 5753 5748 5745 5742 5738 5735 5732 5729 5726
5678 5684 5688 5721 5748 5756 5749 5738 5760 5762 5763 5765 5769 5761 5771 5786 5787 5788 5789 5789 5789 5789 5787 5784 5781 5779 5775 5772 5769 5767 5765 5763 5761 5758 5754 5750 5747 5743 5739 5736 5733 5729 5725 5723
5674 5681 5696 5727 5742 5746 5723 5731 5755 5757 5758 5758 5759 5764 5774 5780 5781 5783 5784 5784 5783 5781 5779 5778 5776 5773 5769 5767 5764 5763 5761 5758 5757 5754 5751 5748 5743 5740 5736 5733 5729 5725 5722 5719
5667 5674 5691 5727 5731 5726 5728 5744 5749 5751 5753 5754 5757 5762 5767 5770 5773 5776 5775 5776 5776 5774 5772 5771 5770 5767 5764 5762 5761 5759 5756 5754 5752 5750 5747 5744 5739 5735 5732 5729 5724 5720 5716 5714
5679 5689 5708 5718 5724 5730 5733 5735 5740 5743 5747 5750 5751 5753 5757 5760 5764 5767 5768 5768 5768 5767 5766 5765 5763 5761 5758 5758 5756 5753 5751 5748 5746 5744 5741 5738 5734 5731 5727 5724 5720 5716 5712 5710
5677 5692 5703 5711 5718 5723 5728 5731 5736 5740 5742 5744 5744 5747 5749 5751 5754 5756 5759 5760 5760 5758 5758 5757 5757 5756 5754 5753 5750 5747 5744 5741 5739 5736 5734 5732 5729 5727 5724 5720 5717 5713 5709 5706
5671 5685 5694 5704 5709 5715 5720 5725 5729 5733 5736 5737 5739 5739 5741 5742 5744 5747 5749 5750 5750 5750 5751 5751 5750 5748 5748 5746 5743 5740 5737 5734 5732 5729 5727 5725 5723 5722 5720 5718 5716 5713 5710 5706
5666 5678 5680 5690 5701 5707 5710 5714 5719 5723 5725 5729 5730 5730 5732 5733 5735 5737 5739 5740 5740 5741 5742 5742 5742 5741 5740 5739 5737 5733 5729 5727 5725 5722 5721 5719 5716 5714 5713 5712 5709 5707 5706 5702
5668 5675 5677 5686 5693 5698 5702 5706 5710 5713 5716 5718 5721 5723 5724 5724 5726 5728 5729 5730 5731 5732 5733 5733 5733 5732 5732 5732 5729 5726 5723 5721 5718 5717 5715 5713 5711 5708 5705 5703 5701 5699 5697 5695
5664 5667 5671 5678 5683 5690 5695 5699 5702 5705 5708 5710 5712 5714 5716 5717 5718 5719 5720 5722 5724 5724 5724 5724 5724 5723 5723 5722 5720 5718 5716 5714 5711 5710 5708 5707 5705 5703 5700 5697 5694 5690 5687 5684
5659 5662 5666 5672 5676 5680 5685 5688 5691 5693 5697 5700 5703 5704 5706 5708 5709 5711 5713 5714 5714 5715 5715 5715 5715 5715 5715 5714 5712 5709 5708 5706 5703 5702 5700 5699 5697 5695 5692 5689 5686 5683 5679 5675
5652 5657 5660 5663 5667 5671 5675 5678 5681 5684 5688 5691 5693 5695 5698 5700 5701 5702 5703 5703 5703 5704 5705 5705 5706 5707 5706 5705 5703 5701 5700 5700 5697 5694 5691 5689 5688 5686 5683 5681 5679 5675 5672 5669
5642 5646 5651 5655 5660 5664 5667 5671 5674 5677 5680 5682 5686 5688 5689 5690 5690 5691 5693 5694 5695 5696 5697 5697 5698 5699 5697 5696 5695 5693 5692 5690 5689 5686 5683 5681 5680 5678 5676 5674 5672 5669 5666 5663
5640 5644 5647 5650 5653 5656 5660 5664 5667 5669 5672 5676 5678 5680 5680 5681 5682 5684 5685 5685 5686 5687 5688 5690 5690 5690 5690 5689 5687 5685 5683 5681 5680 5677 5675 5673 5672 5670 5668 5666 5664 5661 5658 5654
5636 5639 5643 5646 5649 5651 5653 5656 5659 5663 5666 5669 5670 5671 5672 5675 5676 5677 5677 5676 5677 5678 5680 5682 5682 5681 5681 5681 5679 5677 5675 5674 5672 5669 5667 5665 5663 5662 5660 5658 5656 5654 5651 5647
5631 5634 5636 5639 5642 5644 5647 5650 5653 5655 5658 5661 5662 5664 5665 5667 5668 5669 5669 5669 5671 5673 5674 5673 5673 5673 5673 5672 5671 5669 5667 5665 5664 5662 5660 5659 5657 5655 5653 5651 5650 5648 5644 5641
5623 5627 5630 5632 5635 5639 5642 5644 5646 5648 5651 5653 5654 5655 5658 5660 5660 5660 5661 5662 5665 5666 5665 5665 5665 5665 5665 5664 5662 5661 5659 5659 5656 5655 5653 5652 5650 5649 5647 5645 5642 5640 5637 5634
5616 5620 5623 5626 5629 5632 5635 5638 5640 5642 5644 5645 5647 5648 5649 5651 5652 5653 5655 5657 5659 5658 5658 5658 5658 5659 5658 5657 5655 5654 5653 5651 5649 5648 5646 5644 5643 5641 5639 5637 5635 5632 5630 5627
5609 5612 5616 5619 5622 5625 5629 5631 5633 5635 5638 5639 5641 5642 5642 5643 5645 5646 5648 5651 5652 5652 5652 5652 5652 5651 5650 5649 5649 5647 5646 5645 5643 5642 5640 5638 5636 5634 5632 5630 5628 5625 5622 5619
5602 5606 5609 5613 5616 5618 5621 5624 5626 5629 5630 5632 5635 5636 5636 5637 5638 5640 5642 5644 5644 5645 5645 5645 5644 5644 5643 5643 5643 5641 5640 5638 5637 5635 5634 5632 5630 5628 5625 5623 5620 5617 5614 5612
5596 5600 5603 5607 5609 5612 5614 5616 5618 5620 5622 5624 5627 5628 5630 5631 5632 5633 5634 5636 5636 5637 5638 5638 5638 5637 5637 5637 5637 5635 5633 5632 5630 5629 5627 5626 5624 5621 5619 5616 5613 5610 5607 5605
5591 5594 5597 5600 5603 5605 5607 5608 5610 5612 5614 5616 5618 5620 5622 5623 5624 5625 5627 5628 5628 5629 5630 5630 5630 5630 5630 5630 5629 5628 5626 5625 5623 5622 5621 5619 5617 5615 5612 5610 5607 5604 5602 5599
5588 5590 5592 5595 5598 5599 5600 5602 5603 5605 5607 5608 5609 5611 5613 5615 5616 5617 5619 5619 5620 5620 5621 5622 5622 5622 5622 5622 5622 5621 5620 5618 5617 5616 5615 5613 5611 5609 5607 5604 5601 5599 5597 5594